Location: Washington
(38.8950°N, 77.0370°W)
Time: 01:42:22
(UTC-04:00)

Amateur Radio Satellites - All Passes

Search period start: 20 April 2014 01:12
Search period end: 21 April 2014 01:12
Location: Washington, 38.8950°N, 77.0370°W

Satellite Date Start Highest point End Downlink Frequencies (MHz)
Time Altitude Azimuth
SO-50 20 Apr 01:23:10 01:27:41 50° 243° (WSW) 01:32:14 436.795 FM
Oscar 10/S400 20 Apr 01:46:44 02:01:35 22° 132° (SE) 02:28:44 145.825 - 145.975 CW/USB, Beacon 145.810 USB
UOSAT-12 20 Apr 02:03:54 02:07:57 27° 49° (NE) 02:11:58 437.025 FM, 437.400 FM
Sapphire 20 Apr 02:06:05 02:10:47 30° 308° (NW) 02:15:31 437.095 MHz 1200 baud AX-25 AFSK
AO-27 20 Apr 02:11:33 02:14:56 17° 93° (E) 02:18:17 436.795 MHz FM
ITAMSAT 1 20 Apr 02:21:42 02:25:37 22° 94° (E) 02:29:31 435.822 SSB
KITSAT 1 20 Apr 02:23:34 02:30:54 40° 109° (ESE) 02:38:16 435.175 FM
AO-Echo 20 Apr 02:24:41 02:27:42 17° 92° (E) 02:30:40 ?
Oscar 19 20 Apr 02:24:43 02:29:43 45° 99° (E) 02:34:41 437.125 CW, 437.150 USB
Oscar 16 20 Apr 02:32:59 02:38:08 59° 101° (E) 02:43:15 437.025 USB, Beacon 2401.1428
OPAL 20 Apr 02:39:28 02:44:22 58° 70° (ENE) 02:49:22 ?
PCSat 20 Apr 02:53:40 02:56:21 14° 318° (NW) 02:59:03 145.825 MHz
Uribyol 2 20 Apr 03:09:04 03:14:14 67° 102° (ESE) 03:19:23 436.500 FM
UOSAT-12 20 Apr 03:43:51 03:48:09 35° 246° (WSW) 03:52:24 437.025 FM, 437.400 FM
Gurwin Techsat 1B 20 Apr 03:44:56 03:49:59 43° 99° (E) 03:55:00 435.225 FM
AO-27 20 Apr 03:49:42 03:54:44 52° 288° (WNW) 03:59:44 436.795 MHz FM
ITAMSAT 1 20 Apr 04:00:24 04:05:16 42° 290° (WNW) 04:10:07 435.822 SSB
AO-Echo 20 Apr 04:02:11 04:06:44 45° 288° (WNW) 04:11:12 ?
Oscar 19 20 Apr 04:04:52 04:08:43 21° 295° (WNW) 04:12:34 437.125 CW, 437.150 USB
Oscar 16 20 Apr 04:13:43 04:16:58 17° 297° (WNW) 04:20:13 437.025 USB, Beacon 2401.1428
KITSAT 1 20 Apr 04:18:24 04:26:09 47° 308° (NW) 04:33:57 435.175 FM
OPAL 20 Apr 04:20:42 04:23:37 15° 266° (W) 04:26:34 ?
Uosat F 20 Apr 04:21:27 04:25:24 23° 95° (E) 04:29:18 435.120 FM
TMSAT-1 20 Apr 04:32:37 04:37:57 87° 104° (ESE) 04:43:14 436.925 FM
Uribyol 2 20 Apr 04:50:17 04:53:08 15° 298° (WNW) 04:55:59 436.500 FM
AO-7 20 Apr 04:52:46 05:00:12 35° 98° (E) 05:07:35 29.400 - 29.500 MHz
JAS-1B 20 Apr 04:54:05 04:59:42 60° 102° (ESE) 05:05:35 435.800 - 435.900 CW/SSB
AO-40 20 Apr 05:02:26 10:31:10 39° 180° (S) 17:11:23 Beacon 2401.320
Gurwin Techsat 1B 20 Apr 05:25:33 05:29:39 23° 295° (WNW) 05:33:44 435.225 FM
RS-15 20 Apr 05:34:39 05:42:59 24° 102° (ESE) 05:51:05 29.354 - 29.394 USB, Beacon 29.352 USB
Uosat F 20 Apr 05:59:40 06:04:16 38° 290° (WNW) 06:08:50 435.120 FM
TMSAT-1 20 Apr 06:15:11 06:17:06 12° 300° (WNW) 06:19:00 436.925 FM
KITSAT 1 20 Apr 06:20:05 06:23:54 14° 333° (NNW) 06:27:44 435.175 FM
MaSat-1 20 Apr 06:38:31 06:40:42 18° 61° (ENE) 06:43:09 437.345 MHz
Hamsat 20 Apr 06:44:01 06:47:47 28° 96° (E) 06:51:32 145.90 MHz
AO-7 20 Apr 06:45:13 06:53:08 51° 295° (WNW) 07:01:03 29.400 - 29.500 MHz
JAS-1B 20 Apr 06:46:23 06:49:55 17° 299° (WNW) 06:53:30 435.800 - 435.900 CW/SSB
STRAND 1 20 Apr 06:57:10 07:02:16 81° 75° (ENE) 07:07:24 ?
JAS-2 20 Apr 07:33:58 07:38:50 32° 98° (E) 07:44:09 435.800 - 435.900 CW/SSB, 435.910 FM
SO-67 20 Apr 07:42:28 07:45:07 20° 95° (E) 07:47:45 435.3500 MHz FM
RS-15 20 Apr 07:42:39 07:54:03 82° 301° (WNW) 08:05:06 29.354 - 29.394 USB, Beacon 29.352 USB
PCSat 20 Apr 08:15:34 08:16:44 11° 39° (NE) 08:17:54 145.825 MHz
MaSat-1 20 Apr 08:16:37 08:19:02 20° 250° (WSW) 08:21:46 437.345 MHz
Hamsat 20 Apr 08:20:08 08:23:38 24° 291° (WNW) 08:27:08 145.90 MHz
STRAND 1 20 Apr 08:41:04 08:42:01 11° 270° (W) 08:43:00 ?
AO-7 20 Apr 08:42:52 08:43:57 10° 316° (NW) 08:45:02 29.400 - 29.500 MHz
Sapphire 20 Apr 09:11:36 09:16:06 26° 51° (NE) 09:20:34 437.095 MHz 1200 baud AX-25 AFSK
SO-67 20 Apr 09:15:31 09:18:10 21° 290° (WNW) 09:20:49 435.3500 MHz FM
JAS-2 20 Apr 09:19:09 09:23:54 32° 291° (WNW) 09:29:03 435.800 - 435.900 CW/SSB, 435.910 FM
PANSAT 20 Apr 09:53:26 09:55:59 17° 176° (S) 09:58:32 not established
PCSat 20 Apr 09:55:55 10:01:18 61° 59° (ENE) 10:06:38 145.825 MHz
Oscar 11 20 Apr 09:58:35 10:01:24 17° 93° (E) 10:04:13 145.825 FM, Beacon 2401.500 USB
RS-15 20 Apr 09:59:16 10:08:17 27° 328° (NNW) 10:17:12 29.354 - 29.394 USB, Beacon 29.352 USB
KITSAT 1 20 Apr 10:18:10 10:23:39 19° 35° (NE) 10:29:05 435.175 FM
HO-68 20 Apr 10:21:07 10:28:19 72° 104° (ESE) 10:35:28 435.675 MHz FM
Sapphire 20 Apr 10:54:34 10:59:43 46° 248° (WSW) 11:04:50 437.095 MHz 1200 baud AX-25 AFSK
Saudisat 1A 20 Apr 11:06:27 11:10:52 64° 118° (ESE) 11:15:18 436.775 MHz
FUNcube-1 20 Apr 11:26:03 11:30:13 50° 100° (E) 11:34:27 145.950 - 145.970 MHz USB
PANSAT 20 Apr 11:33:17 11:35:34 15° 189° (S) 11:37:51 not established
Oscar 11 20 Apr 11:33:40 11:37:45 39° 288° (WNW) 11:41:48 145.825 FM, Beacon 2401.500 USB
PCSat 20 Apr 11:40:46 11:44:09 17° 256° (WSW) 11:47:33 145.825 MHz
HO-68 20 Apr 12:10:06 12:15:19 22° 302° (WNW) 12:20:32 435.675 MHz FM
KITSAT 1 20 Apr 12:12:29 12:20:36 71° 58° (ENE) 12:28:38 435.175 FM
RS-15 20 Apr 12:19:46 12:26:08 17° 4° (N) 12:32:31 29.354 - 29.394 USB, Beacon 29.352 USB
Saudisat 1A 20 Apr 12:48:05 12:50:53 16° 316° (NW) 12:53:42 436.775 MHz
Uribyol 2 20 Apr 12:51:06 12:52:16 11° 59° (ENE) 12:53:26 436.500 FM
FUNcube-1 20 Apr 13:04:03 13:06:14 14° 295° (WNW) 13:08:26 145.950 - 145.970 MHz USB
AO-27 20 Apr 13:28:25 13:32:33 25° 66° (ENE) 13:36:41 436.795 MHz FM
AO-Echo 20 Apr 13:36:01 13:40:00 23° 66° (ENE) 13:43:55 ?
ITAMSAT 1 20 Apr 13:38:29 13:42:56 30° 68° (ENE) 13:47:22 435.822 SSB
Oscar 19 20 Apr 13:40:22 13:45:23 58° 73° (ENE) 13:50:27 437.125 CW, 437.150 USB
Oscar 16 20 Apr 13:48:43 13:53:50 75° 75° (ENE) 13:59:00 437.025 USB, Beacon 2401.1428
KITSAT 1 20 Apr 14:09:11 14:15:13 24° 256° (WSW) 14:21:14 435.175 FM
TMSAT-1 20 Apr 14:15:19 14:18:12 15° 62° (ENE) 14:21:04 436.925 FM
Uribyol 2 20 Apr 14:25:46 14:30:56 88° 76° (ENE) 14:36:08 436.500 FM
RS-15 20 Apr 14:33:51 14:43:26 33° 38° (NE) 14:53:07 29.354 - 29.394 USB, Beacon 29.352 USB
OPAL 20 Apr 14:51:48 14:55:09 17° 94° (E) 14:58:30 ?
ISS 20 Apr 14:59:36 15:02:50 50° 137° (SE) 15:06:06 145.800 FM
Gurwin Techsat 1B 20 Apr 15:04:46 15:09:58 60° 73° (ENE) 15:15:12 435.225 FM
AO-27 20 Apr 15:07:01 15:11:50 39° 262° (W) 15:16:41 436.795 MHz FM
Oscar 10/S400 20 Apr 15:11:42 16:05:12 14° 274° (W) 17:23:09 145.825 - 145.975 CW/USB, Beacon 145.810 USB
AO-Echo 20 Apr 15:13:31 15:18:29 43° 261° (W) 15:23:22 ?
ITAMSAT 1 20 Apr 15:17:45 15:22:20 31° 263° (W) 15:26:55 435.822 SSB
Oscar 19 20 Apr 15:22:05 15:25:05 16° 269° (W) 15:28:06 437.125 CW, 437.150 USB
Oscar 16 20 Apr 15:32:02 15:33:43 12° 270° (W) 15:35:25 437.025 USB, Beacon 2401.1428
Uosat F 20 Apr 15:33:34 15:37:50 29° 68° (ENE) 15:42:07 435.120 FM
JAS-1B 20 Apr 15:36:43 15:44:28 51° 71° (ENE) 15:50:59 435.800 - 435.900 CW/SSB
SO-50 20 Apr 15:36:51 15:41:18 72° 119° (ESE) 15:45:48 436.795 FM
AO-7 20 Apr 15:50:25 15:58:03 44° 63° (ENE) 16:05:42 29.400 - 29.500 MHz
TMSAT-1 20 Apr 15:52:14 15:57:30 70° 258° (WSW) 16:02:47 436.925 FM
OPAL 20 Apr 16:29:14 16:34:20 56° 290° (WNW) 16:39:25 ?
ISS 20 Apr 16:37:03 16:39:45 22° 334° (NNW) 16:42:28 145.800 FM
RS-15 20 Apr 16:45:59 16:56:56 79° 243° (WSW) 17:08:13 29.354 - 29.394 USB, Beacon 29.352 USB
Gurwin Techsat 1B 20 Apr 16:47:11 16:50:19 16° 269° (W) 16:53:27 435.225 FM
Uosat F 20 Apr 17:12:07 17:16:32 31° 263° (W) 17:20:58 435.120 FM
SO-50 20 Apr 17:19:47 17:22:23 15° 318° (NW) 17:25:00 436.795 FM
JAS-1B 20 Apr 17:28:15 17:35:07 29° 263° (W) 17:41:07 435.800 - 435.900 CW/SSB
Hamsat 20 Apr 17:37:18 17:40:07 18° 67° (ENE) 17:42:57 145.90 MHz
AO-7 20 Apr 17:43:08 17:50:47 41° 261° (W) 17:58:30 29.400 - 29.500 MHz
JAS-2 20 Apr 17:49:32 17:51:00 11° 61° (ENE) 17:52:26 435.800 - 435.900 CW/SSB, 435.910 FM
UOSAT-12 20 Apr 17:53:19 17:57:52 88° 302° (WNW) 18:02:32 437.025 FM, 437.400 FM
RS-15 20 Apr 19:01:31 19:07:28 16° 261° (W) 19:13:32 29.354 - 29.394 USB, Beacon 29.352 USB
STRAND 1 20 Apr 19:09:32 19:13:59 29° 96° (E) 19:18:23 ?
Hamsat 20 Apr 19:11:56 19:15:49 36° 263° (W) 19:19:45 145.90 MHz
JAS-2 20 Apr 19:29:34 19:35:28 90° 77° (ENE) 19:40:50 435.800 - 435.900 CW/SSB, 435.910 FM
Saudisat 1A 20 Apr 19:34:42 19:38:47 36° 52° (NE) 19:42:49 436.775 MHz
UOSAT-12 20 Apr 19:36:36 19:38:44 13° 320° (NW) 19:40:54 437.025 FM, 437.400 FM
SO-67 20 Apr 19:47:05 19:50:33 76° 259° (W) 19:54:04 435.3500 MHz FM
ISS 20 Apr 19:53:54 19:55:28 13° 15° (NNE) 19:57:01 145.800 FM
MaSat-1 20 Apr 20:42:40 20:43:10 10° 108° (ESE) 20:43:40 437.345 MHz
HO-68 20 Apr 20:48:13 20:54:57 47° 67° (ENE) 21:01:43 435.675 MHz FM
STRAND 1 20 Apr 20:48:41 20:53:06 31° 292° (WNW) 20:57:30 ?
Oscar 11 20 Apr 20:54:02 20:55:44 12° 64° (ENE) 20:57:27 145.825 FM, Beacon 2401.500 USB
Saudisat 1A 20 Apr 21:14:46 21:18:10 22° 249° (WSW) 21:21:32 436.775 MHz
ISS 20 Apr 21:29:39 21:32:53 44° 34° (NNE) 21:36:07 145.800 FM
MaSat-1 20 Apr 22:19:06 22:21:23 21° 298° (WNW) 22:23:30 437.345 MHz
FUNcube-1 20 Apr 22:21:52 22:25:40 34° 72° (ENE) 22:29:26 145.950 - 145.970 MHz USB
Oscar 11 20 Apr 22:27:10 22:31:24 59° 259° (W) 22:35:41 145.825 FM, Beacon 2401.500 USB
HO-68 20 Apr 22:36:37 22:42:47 31° 264° (W) 22:49:01 435.675 MHz FM
ISS 20 Apr 23:06:58 23:09:24 19° 229° (SW) 23:11:48 145.800 FM
Sapphire 20 Apr 23:52:32 23:57:02 27° 108° (ESE) 00:01:33 437.095 MHz 1200 baud AX-25 AFSK
FUNcube-1 20 Apr 23:59:20 00:02:10 18° 266° (W) 00:05:01 145.950 - 145.970 MHz USB
SO-50 21 Apr 00:09:41 00:14:10 46° 54° (NE) 00:18:41 436.795 FM
PCSat 21 Apr 00:36:12 00:41:34 74° 115° (ESE) 00:46:59 145.825 MHz
